Flag for France Weather past 2 weeks in Paris, France

Now
39 °F

Mostly cloudy.


Feels Like: 32 °F
Forecast: 37 / 45 °F
Wind: 12 mph from Southwest

Location: Villacoublay

Current Time: Jan 29, 2015 at 9:28:31 AM

Latest Report: Jan 29, 2015 at 9:00 AM


Visibility: N/A

Pressure: 29.42 "Hg

Humidity: 93%

Dew point: 37 °F

Location of ParisLocation

Historic Weather in Paris — Graph

°F

Paris temperature yesterday

Maximum temperature yesterday: 46 °F (at 4:30 PM)
Minimum temperature yesterday: 37 °F (at 12:00 AM)
Average temperature yesterday: 42 °F

Past Weeks' High & Low Weather Summary

 TemperatureHumidityPressure
High50 °F (Jan 15, 9:30 AM)100% (Jan 16, 6:00 AM)30.51 "Hg (Jan 16, 6:00 AM)
Low28 °F (Jan 20, 7:00 PM)61% (Jan 17, 3:30 PM)29.45 "Hg (Jan 29, 8:30 AM)
Average37 °F86%30.00 "Hg
* Reported Jan 14 8:00 AM — Jan 29 8:30 AM, Paris, Weather by CustomWeather, © 2014

Note: Actual official high and low records may vary slightly from our data, if they occured in-between our weather recording intervals... More about our weather records

Advertising

Paris weather history for previous 24 hours

 ConditionsComfort  
Time TempWeatherWind HumidityBarometerVisibility
8:30 AM
Jan 29
39 °FMostly cloudy.12 mph87%29.45 "HgN/A
8:00 AM39 °FMostly cloudy.12 mph87%29.47 "HgN/A
7:30 AM37 °FPassing clouds.8 mph93%29.47 "HgN/A
7:00 AM37 °FPartly cloudy.9 mph93%29.50 "HgN/A
6:30 AM39 °FPartly cloudy.12 mph87%29.50 "HgN/A
6:00 AM39 °FDrizzle. Mostly cloudy.10 mph87%29.53 "HgN/A
5:30 AM37 °FOvercast.8 mph93%29.56 "HgN/A
5:00 AM39 °FOvercast.12 mph87%29.56 "HgN/A
4:30 AM39 °FPassing clouds.13 mph87%29.56 "HgN/A
4:00 AM39 °FPartly cloudy.12 mph87%29.59 "HgN/A
3:30 AM39 °FPartly cloudy.10 mph81%29.62 "HgN/A
3:00 AM37 °FChilly.10 mph87%29.62 "HgN/A
2:30 AM37 °FClear.12 mph81%29.65 "HgN/A
2:00 AM37 °FClear.9 mph75%29.65 "HgN/A
1:30 AM39 °FClear.9 mph75%29.68 "HgN/A
1:00 AM39 °FClear.9 mph75%29.68 "HgN/A
12:30 AM39 °FClear.7 mph81%29.68 "HgN/A
12:00 AM39 °FClear.8 mph81%29.71 "HgN/A
11:30 PM
Jan 28
39 °FClear.8 mph81%29.71 "HgN/A
11:00 PM41 °FClear.8 mph76%29.71 "HgN/A
10:30 PM41 °FClear.8 mph76%29.71 "HgN/A
10:00 PM41 °FClear.9 mph76%29.71 "HgN/A
9:30 PM41 °FClear.12 mph76%29.71 "HgN/A
9:00 PM41 °FClear.12 mph76%29.71 "HgN/A
8:30 PM43 °FOvercast.13 mph76%29.74 "HgN/A
8:00 PM43 °FClear.15 mph76%29.74 "HgN/A
7:30 PM43 °FClear.16 mph76%29.71 "HgN/A
7:00 PM45 °FMostly cloudy.18 mph81%29.71 "HgN/A
6:30 PM45 °FPartly cloudy.20 mph87%29.71 "HgN/A
6:00 PM46 °FPartly cloudy.13 mph87%29.68 "HgN/A
5:30 PM46 °FMore clouds than sun.10 mph87%29.68 "HgN/A
5:00 PM46 °FLight rain. Mostly cloudy.13 mph93%29.71 "HgN/A
4:30 PM46 °FDrizzle. Fog.15 mph93%29.71 "Hg3 mi
4:00 PM45 °FLow clouds.16 mph93%29.71 "HgN/A
3:30 PM45 °FDrizzle. Low clouds.15 mph93%29.74 "Hg4 mi
3:00 PM45 °FLow clouds.16 mph93%29.77 "HgN/A
2:30 PM45 °FLow clouds.18 mph93%29.77 "HgN/A
2:00 PM45 °FLow clouds.18 mph87%29.80 "HgN/A
1:30 PM43 °FLow clouds.17 mph93%29.83 "HgN/A
1:00 PM43 °FDrizzle. Mostly cloudy.13 mph93%29.86 "Hg5 mi
12:30 PM43 °FLow clouds.15 mph93%29.89 "HgN/A
12:00 PM43 °FDrizzle. Low clouds.15 mph87%29.92 "HgN/A
11:30 AM43 °FOvercast.13 mph87%29.95 "HgN/A
11:00 AM43 °FOvercast.14 mph81%29.95 "HgN/A
10:30 AM41 °FOvercast.12 mph87%29.98 "HgN/A
10:00 AM41 °FPartly sunny.10 mph87%30.01 "HgN/A
9:30 AM41 °FScattered clouds.12 mph87%30.01 "HgN/A
9:00 AM41 °FOvercast.8 mph87%30.04 "HgN/A
Weather by CustomWeather, © 2014

See weather overviewHow to use our weather pages